194P/LINEAR (2016)

Japanese version
Home page
Updated on November 13, 2016

---------------------------------------------------------------------

* Profile

* Pictures

* Orbital Elements

Epoch 2016 Jan. 13.0 TT = JDT 2457400.5
T 2016 Mar. 2.43813 TT                                  MPCW
q   1.6977260            (2000.0)            P               Q
n   0.12325089     Peri.  130.70943     -0.54228336     -0.83976483
a   3.9989196      Node   351.99429     +0.70082072     -0.43443319
e   0.5754538      Incl.   11.13798     +0.46344264     -0.32567290
P   8.00
From 215 observations 2000 Jan. 27-2016 Jan. 30, mean residual 0".6.
     Nongravitational parameters A1 = +0.43, A2 = -0.0174.

* Magnitudes Graph

        m1 = 16.5 + 5 log d + 10.0 log r(t - 15)

        * Gray curve is:  m1 = 12.5 + 5 log d + 20.0 log r(t - 15)

---------------------------------------------------------------------

The orbital elements are published on M.P.E.C. 2016-D32.
The magnitudes graphs are made with Comet for Windows.

---------------------------------------------------------------------

Copyright(C) Seiichi Yoshida (comet@aerith.net). All rights reserved.